Regional Weather Roundup
Issued by NWS

Home | Current Version | Previous Version | Graphics & Text | Print | Product List | Glossary On
Versions: 1 2 3 4 5 6 7 8 9 10 11 12 13 14 15 16 17 18 19 20 21 22 23 24 25 26 27 28 29 30 31 32 33 34 35 36 37 38 39 40 41 42 43 44 45 46 47 48 49 50
000
ASUS45 KBOI 261110
RWRID
WEATHER ROUNDUP FOR IDAHO
NATIONAL WEATHER SERVICE BOISE ID
500 AM MDT THU MAR 26 2015

NOTE: "FAIR" INDICATES FEW OR NO CLOUDS BELOW 12000 FEET
WITH NO SIGNIFICANT WEATHER AND/OR OBSTRUCTIONS TO VISIBILITY

IDZ012-014-261200-
SOUTHWEST IDAHO


CITY           SKY/WX    TMP DP  RH WIND       PRES   REMARKS
BOISE          PTCLDY    39  33  79 S5        30.40F
CALDWELL       PTCLDY    34  27  75 CALM      30.43S
MOUNTAIN HOME  PTCLDY    34  30  84 NW2       30.40F
$$

IDZ016-017-261200-
SOUTHCENTRAL IDAHO


CITY           SKY/WX    TMP DP  RH WIND       PRES   REMARKS
BURLEY         CLEAR     33  27  78 SW8       30.38S WCI  26
JEROME         CLEAR     35  28  75 S8        30.39S WCI  29
TWIN FALLS     CLEAR     40  28  62 SW13      30.38F WCI  32
$$

IDZ019>023-261200-
SOUTHEAST IDAHO


CITY           SKY/WX    TMP DP  RH WIND       PRES   REMARKS
IDAHO FALLS    CLEAR     31  27  85 SW9       30.37S WCI  23
POCATELLO      CLEAR     39  32  76 SW14      30.39S WCI  31
REXBURG        CLEAR     34  28  79 S12       30.36S WCI  25
$$

IDZ006-010-011-018-031-032-261200-
CENTRAL IDAHO MOUNTAINS


CITY           SKY/WX    TMP DP  RH WIND       PRES   REMARKS
MCCALL         CLOUDY    31  30  96 CALM      30.39F
HAILEY         CLEAR     36  27  69 N6        30.38S WCI  31
STANLEY          N/A     26  21  81 CALM      30.42S
SALMON         CLOUDY    43  30  61 CALM      30.35S
CHALLIS        PTCLDY    33  26  75 NE3       30.37S
$$

IDZ002-004-006-007-026-261200-
NORTHERN IDAHO


CITY           SKY/WX    TMP DP  RH WIND       PRES   REMARKS
LEWISTON       MOCLDY    45  42  89 CALM      30.35S
LOWELL           N/A     44  42  93 N3        30.42S
COEUR D`ALENE  CLOUDY    45  43  93 SE8       30.31S
MULLAN PASS    LGT RAIN  34  34 100 VRB7      30.29S VSB 1/4 WCI  28
$$


USA.gov is the U.S. government's official web portal to all federal, state and local government web resources and services.